N0RPM-13 Weather Reports


Display with metric or nautical units.
time (UTC)temp
F
wind
direction
speed
MPH
gust
MPH
rain 1hr
in
rain 24hr
in
rain mn
in
humidity
%
barometer
mb
20260906154156 74 153 1.0 2.0 0.00 0.00 0.00 79 1020.1
20260906153656 74 151 4.0 6.0 0.00 0.00 0.00 78 1020.4
20260906153156 74 148 2.0 7.0 0.00 0.00 0.00 78 1020.7
20260906152651 74 160 1.0 4.0 0.00 0.00 0.00 78 1020.6
20260906152151 74 136 2.0 2.0 0.00 0.00 0.00 78 1020.7
20260906151645 73 165 2.0 2.0 0.00 0.00 0.00 79 1020.7
20260906151142 73 128 4.0 6.0 0.00 0.00 0.00 80 1020.5
20260906150636 73 169 2.0 8.0 0.00 0.00 0.00 79 1020.5
20260906150132 74 163 2.0 3.0 0.00 0.00 0.00 79 1020.6
20260906145631 73 164 4.0 6.0 0.00 0.00 0.00 80 1020.5
20260906145125 72 173 4.0 6.0 0.00 0.00 0.00 82 1020.5
20260906144620 72 182 2.0 3.0 0.00 0.00 0.00 82 1020.4
20260906144115 71 181 1.0 4.0 0.00 0.00 0.00 84 1020.4
20260906143615 71 165 2.0 3.0 0.00 0.00 0.00 86 1020.1
20260906143112 71 147 2.0 3.0 0.00 0.00 0.00 85 1020.2
20260906142611 71 151 3.0 6.0 0.00 0.00 0.00 86 1020.5
20260906142106 71 131 1.0 4.0 0.00 0.00 0.00 86 1020.7
20260906141605 71 148 3.0 3.0 0.00 0.00 0.00 87 1020.5
20260906141101 71 171 3.0 3.0 0.00 0.00 0.00 87 1020.5
20260906140559 70 179 1.0 3.0 0.00 0.00 0.00 88 1020.4
20260906140054 70 192 3.0 3.0 0.00 0.00 0.00 88 1020.1
20260906135551 70 173 2.0 4.0 0.00 0.00 0.00 88 1020.5
20260906135048 70 162 2.0 4.0 0.00 0.00 0.00 88 1020.0
20260906134543 70 162 1.0 2.0 0.00 0.00 0.00 89 1020.1
20260906134038 70 148 1.0 1.0 0.00 0.00 0.00 89 1020.1
20260906133533 70 129 1.0 3.0 0.00 0.00 0.00 89 1020.1
20260906133029 70 115 2.0 4.0 0.00 0.00 0.00 90 1020.0
20260906132524 70 131 2.0 4.0 0.00 0.00 0.00 90 1019.9
20260906132019 70 138 2.0 2.0 0.00 0.00 0.00 90 1019.9
20260906131514 70 144 1.0 2.0 0.00 0.00 0.00 91 1019.8
20260906131010 69 141 2.0 4.0 0.00 0.00 0.00 91 1019.8
20260906130509 70 162 2.0 4.0 0.00 0.00 0.00 91 1019.5
20260906130004 70 171 0.0 2.0 0.00 0.00 0.00 92 1019.8
20260906125502 69 172 1.0 1.0 0.00 0.00 0.00 92 1019.8
20260906125001 69 132 1.0 2.0 0.00 0.00 0.00 92 1019.9
20260906124457 69 127 1.0 3.0 0.00 0.00 0.00 92 1019.6
20260906123951 69 136 0.0 1.0 0.00 0.00 0.00 93 1020.0
20260906123451 69 136 0.0 1.0 0.00 0.00 0.00 93 1019.9
20260906122950 69 142 1.0 1.0 0.00 0.00 0.00 94 1019.8
20260906122445 68 145 0.0 1.0 0.00 0.00 0.00 95 1019.8
20260906121942 68 145 0.0 0.0 0.00 0.00 0.00 95 1019.5
20260906121438 68 145 0.0 1.0 0.00 0.00 0.00 95 1019.7
20260906120934 68 145 0.0 0.0 0.00 0.00 0.00 95 1019.5
20260906120429 68 145 0.0 0.0 0.00 0.00 0.00 95 1019.6
20260906115926 68 145 0.0 0.0 0.00 0.00 0.00 95 1019.4
20260906115421 68 145 0.0 0.0 0.00 0.00 0.00 94 1019.4
20260906114921 68 145 0.0 1.0 0.00 0.00 0.00 94 1019.3
20260906114421 68 146 0.0 1.0 0.00 0.00 0.00 94 1019.3
20260906113917 68 146 0.0 1.0 0.00 0.00 0.00 94 1019.4
20260906113415 68 149 0.0 1.0 0.00 0.00 0.00 94 1019.2
20260906112911 69 150 0.0 1.0 0.00 0.00 0.00 94 1019.1
20260906112407 69 150 0.0 1.0 0.00 0.00 0.00 94 1019.2
20260906111902 69 150 0.0 1.0 0.00 0.00 0.00 93 1019.2
20260906111401 69 151 0.0 1.0 0.00 0.00 0.00 93 1019.2
20260906110856 69 150 0.0 0.0 0.00 0.00 0.00 93 1018.9
20260906110352 69 145 1.0 1.0 0.00 0.00 0.00 93 1019.1
20260906105850 69 176 1.0 2.0 0.00 0.00 0.00 93 1019.1
20260906105347 69 155 1.0 2.0 0.00 0.00 0.00 93 1018.9
20260906104842 69 164 0.0 1.0 0.00 0.00 0.00 92 1018.9
20260906104341 70 168 1.0 3.0 0.00 0.00 0.00 92 1019.1
20260906103839 70 169 1.0 1.0 0.00 0.00 0.00 92 1018.9
20260906103338 70 144 0.0 1.0 0.00 0.00 0.00 92 1018.9
20260906102834 70 139 0.0 1.0 0.00 0.00 0.00 92 1018.8
20260906102333 70 160 0.0 1.0 0.00 0.00 0.00 92 1018.9
20260906101828 70 187 6.0 8.0 0.00 0.00 0.00 92 1018.9
20260906101323 70 174 2.0 3.0 0.00 0.00 0.00 92 1019.0
20260906100819 70 157 1.0 3.0 0.00 0.00 0.00 93 1018.6
20260906100318 69 153 1.0 1.0 0.00 0.00 0.00 93 1018.6
20260906095813 69 167 1.0 2.0 0.00 0.00 0.00 94 1018.5
20260906095309 69 167 2.0 3.0 0.00 0.00 0.00 94 1018.4
20260906094808 69 164 1.0 2.0 0.00 0.00 0.00 94 1018.3
20260906094303 68 150 0.0 0.0 0.00 0.00 0.00 94 1018.2
20260906093759 68 150 0.0 0.0 0.00 0.00 0.00 94 1018.2
20260906093255 69 150 0.0 0.0 0.00 0.00 0.00 94 1018.2
20260906092750 69 150 0.0 0.0 0.00 0.00 0.00 94 1018.1
20260906092250 69 150 0.0 0.0 0.00 0.00 0.00 94 1018.3
20260906091746 69 150 0.0 0.0 0.00 0.00 0.00 93 1018.2
20260906091242 69 150 0.0 0.0 0.00 0.00 0.00 93 1018.2
20260906090738 69 150 1.0 1.0 0.00 0.00 0.00 94 1018.2
20260906090237 69 150 0.0 0.0 0.00 0.00 0.00 93 1018.3
20260906085736 68 149 0.0 0.0 0.00 0.00 0.00 93 1018.1
20260906085236 68 149 0.0 0.0 0.00 0.00 0.00 93 1018.1
20260906084731 69 149 0.0 0.0 0.00 0.00 0.00 93 1018.1
20260906084231 69 149 0.0 0.0 0.00 0.00 0.00 92 1018.3
20260906083725 69 149 0.0 0.0 0.00 0.00 0.00 92 1018.1
20260906083221 69 149 0.0 0.0 0.00 0.00 0.00 92 1018.2
20260906082716 69 149 0.0 0.0 0.00 0.00 0.00 91 1018.2
20260906082211 69 149 0.0 0.0 0.00 0.00 0.00 91 1018.3
20260906081707 69 149 0.0 0.0 0.00 0.00 0.00 91 1018.2
20260906081202 70 149 0.0 1.0 0.00 0.00 0.00 91 1018.1
20260906080659 70 150 1.0 1.0 0.00 0.00 0.00 91 1018.0
20260906080154 70 164 1.0 1.0 0.00 0.00 0.00 91 1018.1
20260906075654 70 164 0.0 0.0 0.00 0.00 0.00 90 1018.2
20260906075148 70 164 0.0 1.0 0.00 0.00 0.00 90 1018.1
20260906074644 70 165 0.0 1.0 0.00 0.00 0.00 90 1018.3
20260906074143 70 169 0.0 0.0 0.00 0.00 0.00 91 1018.3
20260906073638 70 169 0.0 0.0 0.00 0.00 0.00 90 1018.3
20260906073134 70 169 0.0 0.0 0.00 0.00 0.00 90 1018.5
20260906072628 70 169 0.0 0.0 0.00 0.00 0.00 90 1018.7
20260906072125 70 169 0.0 0.0 0.00 0.00 0.00 89 1018.5
20260906071621 71 169 0.0 0.0 0.00 0.00 0.00 89 1018.5
20260906071121 71 169 0.0 0.0 0.00 0.00 0.00 88 1018.7
20260906070618 71 169 0.0 1.0 0.00 0.00 0.00 88 1018.4
20260906070113 71 169 0.0 0.0 0.00 0.00 0.00 88 1018.3
20260906065612 71 169 0.0 0.0 0.00 0.00 0.00 88 1018.3
20260906065108 71 169 0.0 1.0 0.00 0.00 0.00 88 1018.4
20260906064603 71 169 0.0 0.0 0.00 0.00 0.00 88 1018.5
20260906064058 71 169 0.0 0.0 0.00 0.00 0.00 88 1018.5
20260906063553 71 169 0.0 0.0 0.00 0.00 0.00 88 1018.5
20260906063050 71 169 0.0 0.0 0.00 0.00 0.00 88 1018.6
20260906062545 71 169 0.0 0.0 0.00 0.00 0.00 87 1018.7
20260906062044 72 169 0.0 0.0 0.00 0.00 0.00 87 1018.6
20260906061541 72 169 0.0 1.0 0.00 0.00 0.00 86 1018.6
20260906061040 72 169 0.0 0.0 0.00 0.00 0.00 86 1018.7
20260906060537 72 169 0.0 0.0 0.00 0.00 0.00 85 1018.7
20260906060034 73 169 0.0 0.0 0.00 0.00 0.00 85 1018.5
20260906055529 73 169 0.0 0.0 0.00 0.00 0.00 84 1018.5
20260906055024 73 169 0.0 0.0 0.00 0.00 0.00 84 1018.5
20260906054524 73 169 0.0 0.0 0.00 0.00 0.00 83 1018.7
20260906054020 73 169 0.0 0.0 0.00 0.00 0.00 83 1018.7
20260906053516 73 169 1.0 1.0 0.00 0.00 0.00 83 1018.4
20260906053011 73 169 0.0 0.0 0.00 0.00 0.00 83 1018.5
20260906052507 73 169 0.0 0.0 0.00 0.00 0.00 83 1018.5
20260906052004 73 169 0.0 0.0 0.00 0.00 0.00 83 1018.7
20260906051459 73 169 0.0 0.0 0.00 0.00 0.00 83 1018.7
20260906050955 73 169 0.0 0.0 0.00 0.00 0.00 83 1018.7
20260906050454 73 169 0.0 0.0 0.00 0.00 0.00 84 1018.5
20260906045954 73 169 0.0 0.0 0.00 0.00 0.00 84 1018.6
20260906045452 73 169 0.0 0.0 0.00 0.00 0.00 84 1018.6
20260906044948 73 169 0.0 0.0 0.00 0.00 0.00 84 1018.7
20260906044444 73 169 0.0 0.0 0.00 0.00 0.00 84 1018.8
20260906043939 73 169 0.0 0.0 0.00 0.00 0.00 84 1018.8
20260906043435 73 169 0.0 0.0 0.00 0.00 0.00 84 1019.0
20260906042931 73 169 0.0 0.0 0.00 0.00 0.00 83 1018.7
20260906042430 73 169 0.0 0.0 0.00 0.00 0.00 83 1018.8
20260906041924 73 169 0.0 0.0 0.00 0.00 0.00 83 1018.8
20260906041420 73 169 0.0 0.0 0.00 0.00 0.00 83 1018.8
20260906040920 74 169 0.0 0.0 0.00 0.00 0.00 82 1018.9
20260906040416 74 169 0.0 0.0 0.00 0.00 0.00 82 1019.0
20260906035911 74 169 0.0 0.0 0.00 0.00 0.00 81 1018.8
20260906035407 74 169 0.0 0.0 0.00 0.00 0.00 81 1019.0
20260906034902 74 169 0.0 0.0 0.00 0.00 0.00 80 1019.0
20260906034402 74 169 0.0 0.0 0.00 0.00 0.00 80 1018.9
20260906033858 74 169 0.0 0.0 0.00 0.00 0.00 80 1018.9
20260906033357 74 169 0.0 0.0 0.00 0.00 0.00 80 1018.8
20260906032853 74 169 0.0 0.0 0.00 0.00 0.00 80 1018.9
20260906032349 74 169 0.0 0.0 0.00 0.00 0.00 80 1018.8
20260906031844 75 169 0.0 0.0 0.00 0.00 0.00 79 1018.8
20260906031339 75 169 0.0 0.0 0.00 0.00 0.00 79 1018.8
20260906030839 75 169 0.0 0.0 0.00 0.00 0.00 79 1018.9
20260906030335 75 169 0.0 0.0 0.00 0.00 0.00 79 1018.9
20260906025835 75 170 0.0 0.0 0.00 0.00 0.00 79 1019.1
20260906025329 75 169 0.0 0.0 0.00 0.00 0.00 79 1018.9
20260906024828 75 169 0.0 0.0 0.00 0.00 0.00 78 1018.8
20260906024327 75 169 0.0 0.0 0.00 0.00 0.00 78 1018.7
20260906023823 75 169 0.0 0.0 0.00 0.00 0.00 78 1018.5
20260906023318 75 169 0.0 0.0 0.00 0.00 0.00 78 1018.4
20260906022814 75 169 0.0 0.0 0.00 0.00 0.00 77 1018.3
20260906022309 75 169 0.0 0.0 0.00 0.00 0.00 77 1018.3
20260906021805 75 169 0.0 0.0 0.00 0.00 0.00 77 1018.2
20260906021304 75 169 0.0 0.0 0.00 0.00 0.00 77 1018.2
20260906020758 75 170 0.0 1.0 0.00 0.00 0.00 76 1018.2
20260906020258 75 169 0.0 0.0 0.00 0.00 0.00 75 1018.0
20260906015758 76 169 0.0 0.0 0.00 0.00 0.00 75 1017.7
20260906015257 76 169 0.0 0.0 0.00 0.00 0.00 74 1017.5
20260906014752 76 170 0.0 1.0 0.00 0.00 0.00 73 1017.4
20260906014247 76 169 1.0 1.0 0.00 0.00 0.00 73 1017.3
20260906013743 77 166 0.0 1.0 0.00 0.00 0.00 72 1017.3
20260906013243 77 133 1.0 1.0 0.00 0.00 0.00 72 1017.0
20260906012739 77 140 1.0 1.0 0.00 0.00 0.00 71 1017.0
20260906012234 77 140 1.0 1.0 0.00 0.00 0.00 71 1017.1
20260906011729 77 170 2.0 2.0 0.00 0.00 0.00 70 1016.9
20260906011228 77 136 0.0 1.0 0.00 0.00 0.00 70 1016.9
20260906010724 78 155 1.0 3.0 0.00 0.00 0.00 69 1017.0
20260906010220 78 174 2.0 6.0 0.00 0.00 0.00 69 1016.8
20260906005715 78 153 4.0 4.0 0.00 0.00 0.00 69 1016.6
20260906005214 78 162 2.0 4.0 0.00 0.00 0.00 69 1016.5
20260906004713 78 166 2.0 4.0 0.00 0.00 0.00 69 1016.4
20260906004209 79 204 3.0 4.0 0.00 0.00 0.00 70 1016.4
20260906003704 79 132 1.0 3.0 0.00 0.00 0.00 70 1016.3
20260906003200 79 155 2.0 3.0 0.00 0.00 0.00 69 1016.4
20260906002659 80 180 3.0 4.0 0.00 0.00 0.00 69 1016.6
20260906002154 80 158 2.0 6.0 0.00 0.00 0.00 68 1016.5
20260906001650 81 117 4.0 7.0 0.00 0.00 0.00 67 1016.3
20260906001149 81 135 2.0 3.0 0.00 0.00 0.00 66 1016.4
20260906000645 82 153 2.0 3.0 0.00 0.00 0.00 63 1016.4
20260906000141 82 126 1.0 2.0 0.00 0.00 0.00 63 1016.4
20260905235639 82 137 2.0 2.0 0.00 0.00 0.00 62 1016.3
20260905235135 83 156 3.0 3.0 0.00 0.00 0.00 61 1016.3
20260905234630 83 169 2.0 2.0 0.00 0.00 0.00 60 1015.9
20260905234125 83 150 1.0 3.0 0.00 0.00 0.00 59 1015.9
20260905233620 84 125 1.0 1.0 0.00 0.00 0.00 58 1015.9
20260905233114 84 103 1.0 2.0 0.00 0.00 0.00 57 1015.9
20260905232610 84 144 0.0 2.0 0.00 0.00 0.00 56 1015.8
20260905232105 85 157 1.0 6.0 0.00 0.00 0.00 55 1015.9
20260905231600 86 163 1.0 2.0 0.00 0.00 0.00 54 1016.0
20260905231057 86 157 1.0 3.0 0.00 0.00 0.00 54 1015.7
20260905230556 86 153 1.0 2.0 0.00 0.00 0.00 53 1015.6
20260905230055 87 79 2.0 4.0 0.00 0.00 0.00 53 1015.5
20260905225554 87 74 2.0 3.0 0.00 0.00 0.00 52 1015.5
20260905225050 88 130 1.0 3.0 0.00 0.00 0.00 52 1015.7
20260905224550 88 142 1.0 3.0 0.00 0.00 0.00 51 1015.7
20260905224049 89 129 2.0 2.0 0.00 0.00 0.00 50 1015.6
20260905223547 88 109 1.0 1.0 0.00 0.00 0.00 50 1015.6
20260905223043 88 155 1.0 3.0 0.00 0.00 0.00 50 1015.5
20260905222543 88 89 1.0 2.0 0.00 0.00 0.00 50 1015.7
20260905222038 88 84 2.0 3.0 0.00 0.00 0.00 51 1015.7
20260905221534 88 50 1.0 2.0 0.00 0.00 0.00 51 1015.7
20260905221030 88 185 2.0 2.0 0.00 0.00 0.00 51 1015.7
20260905220526 88 146 2.0 3.0 0.00 0.00 0.00 50 1015.6
20260905220022 88 78 1.0 2.0 0.00 0.00 0.00 50 1015.4
20260905215515 88 64 0.0 3.0 0.00 0.00 0.00 50 1015.6
20260905215012 89 136 2.0 3.0 0.00 0.00 0.00 49 1015.7
20260905214508 89 65 2.0 2.0 0.00 0.00 0.00 50 1015.8
20260905214008 89 108 1.0 2.0 0.00 0.00 0.00 51 1015.6
20260905213503 88 130 1.0 3.0 0.00 0.00 0.00 51 1015.8
20260905212958 88 255 2.0 3.0 0.00 0.00 0.00 51 1015.6
20260905212453 88 67 2.0 2.0 0.00 0.00 0.00 50 1015.7
20260905211952 88 155 1.0 3.0 0.00 0.00 0.00 52 1016.0
20260905211448 88 38 2.0 4.0 0.00 0.00 0.00 51 1016.2
20260905210943 88 72 0.0 1.0 0.00 0.00 0.00 53 1016.2
20260905210439 87 28 3.0 3.0 0.00 0.00 0.00 52 1016.2
20260905205938 88 151 2.0 4.0 0.00 0.00 0.00 52 1016.2
20260905205433 88 305 2.0 2.0 0.00 0.00 0.00 54 1016.6
20260905204932 87 150 2.0 4.0 0.00 0.00 0.00 55 1016.5
20260905204428 86 171 3.0 3.0 0.00 0.00 0.00 57 1016.9
20260905203927 85 192 3.0 3.0 0.00 0.00 0.00 58 1016.8
20260905203422 84 106 1.0 1.0 0.00 0.00 0.00 61 1017.0
20260905202918 83 141 0.0 2.0 0.00 0.00 0.00 62 1017.1
20260905202413 83 152 3.0 4.0 0.00 0.00 0.00 62 1017.3
20260905201908 84 153 3.0 4.0 0.00 0.00 0.00 61 1017.3
20260905201404 83 162 3.0 3.0 0.00 0.00 0.00 61 1017.4
20260905200903 84 167 2.0 3.0 0.00 0.00 0.00 61 1017.5
20260905200359 85 187 1.0 3.0 0.00 0.00 0.00 59 1017.5
20260905195857 85 163 0.0 2.0 0.00 0.00 0.00 58 1017.4
20260905195353 85 107 1.0 2.0 0.00 0.00 0.00 58 1017.5
20260905194849 84 77 1.0 2.0 0.00 0.00 0.00 61 1017.6
20260905194348 83 216 2.0 3.0 0.00 0.00 0.00 62 1017.7
20260905193848 84 208 3.0 3.0 0.00 0.00 0.00 61 1017.9
20260905193342 83 153 1.0 1.0 0.00 0.00 0.00 63 1017.7
20260905192838 83 153 2.0 4.0 0.00 0.00 0.00 62 1018.0
20260905192334 83 160 1.0 2.0 0.00 0.00 0.00 63 1017.7
20260905191833 83 159 1.0 2.0 0.00 0.00 0.00 63 1017.7
20260905191332 82 144 2.0 2.0 0.00 0.00 0.00 64 1017.9
20260905190831 82 181 1.0 2.0 0.00 0.00 0.00 64 1017.9
20260905190331 82 181 1.0 2.0 0.00 0.00 0.00 64 1017.8
20260905185829 82 217 3.0 3.0 0.00 0.00 0.00 64 1017.7
20260905185325 82 10 2.0 2.0 0.00 0.00 0.00 64 1017.9
20260905184824 82 54 2.0 2.0 0.00 0.00 0.00 64 1017.8
20260905184323 82 123 2.0 2.0 0.00 0.00 0.00 64 1018.0
20260905183822 84 180 2.0 3.0 0.00 0.00 0.00 64 1017.8
20260905183318 84 164 3.0 3.0 0.00 0.00 0.00 64 1017.9
20260905182812 83 80 1.0 2.0 0.00 0.00 0.00 65 1017.8
20260905182312 82 206 2.0 2.0 0.00 0.00 0.00 66 1017.9
20260905181807 81 177 5.0 7.0 0.00 0.00 0.00 68 1018.0
20260905181301 80 179 2.0 3.0 0.00 0.00 0.00 71 1017.9
20260905180800 80 136 3.0 3.0 0.00 0.00 0.00 70 1017.9
20260905180256 80 167 3.0 6.0 0.00 0.00 0.00 70 1017.9
20260905175756 80 153 1.0 2.0 0.00 0.00 0.00 70 1018.3
20260905175250 80 192 2.0 3.0 0.00 0.00 0.00 69 1018.2
20260905174746 80 205 2.0 3.0 0.00 0.00 0.00 69 1018.3
20260905174241 81 208 4.0 6.0 0.00 0.00 0.00 68 1018.6
20260905173737 80 160 1.0 1.0 0.00 0.00 0.00 70 1018.5
20260905173233 79 212 3.0 4.0 0.00 0.00 0.00 71 1018.5
20260905172727 80 157 1.0 3.0 0.00 0.00 0.00 69 1018.7
20260905172226 80 140 2.0 2.0 0.00 0.00 0.00 70 1018.8
20260905171723 79 118 1.0 1.0 0.00 0.00 0.00 72 1018.7
20260905171219 78 9 2.0 2.0 0.00 0.00 0.00 73 1018.8
20260905170716 78 188 2.0 2.0 0.00 0.00 0.00 73 1018.6
20260905170215 77 117 1.0 1.0 0.00 0.00 0.00 75 1018.6
20260905165715 77 190 2.0 4.0 0.00 0.00 0.00 77 1018.7
20260905165205 77 178 3.0 3.0 0.00 0.00 0.00 75 1018.8
20260905164705 78 146 1.0 3.0 0.00 0.00 0.00 75 1018.5
20260905164205 77 137 1.0 1.0 0.00 0.00 0.00 76 1018.7
20260905163701 76 61 2.0 2.0 0.00 0.00 0.00 77 1019.0
20260905163157 76 207 1.0 1.0 0.00 0.00 0.00 78 1018.8
20260905162653 75 162 2.0 2.0 0.00 0.00 0.00 80 1019.0
20260905162152 75 175 2.0 4.0 0.00 0.00 0.00 80 1019.0
20260905161648 75 164 0.0 2.0 0.00 0.00 0.00 80 1018.9
20260905161145 75 141 1.0 2.0 0.00 0.00 0.00 81 1019.0
20260905160644 75 174 0.0 0.0 0.00 0.00 0.00 82 1018.8
20260905160144 74 58 0.0 0.0 0.00 0.00 0.00 84 1018.8
20260905155639 73 58 0.0 1.0 0.00 0.00 0.00 84 1018.7
20260905155138 74 58 2.0 2.0 0.00 0.00 0.00 84 1018.8
20260905154638 74 159 1.0 1.0 0.00 0.00 0.00 84 1018.6